Regional Weather Roundup
Issued by NWS Bismarck, ND

Home | Current Version | Previous Version | Text Only | Print | Product List | Glossary On
Versions: 1 2 3 4 5 6 7 8 9 10 11 12 13 14 15 16 17 18 19 20 21 22 23 24 25 26 27 28 29 30 31 32 33 34 35 36 37 38 39 40 41 42 43 44 45 46 47 48 49 50
000
ASUS43 KBIS 161910
RWRBIS

NWR BROADCAST TEXT
NATIONAL WEATHER SERVICE BISMARCK ND
100 PM CST SAT DEC 16 2017

NOTE: "FAIR" INDICATES FEW OR NO CLOUDS BELOW 12,000 FEET WITH NO
SIGNIFICANT WEATHER AND/OR OBSTRUCTIONS TO VISIBILITY.


CITY           SKY/WX    TMP DP  RH WIND       PRES   REMARKS
WILLISTON      FAIR      36  23  59 W8        29.95S
MINOT          FAIR      40  28  62 W14       29.89S
MINOT AFB      SUNNY     38  28  67 W12       29.88S
BISMARCK       PTSUNNY   40  33  76 NW12      29.94R
DICKINSON      FAIR      33  25  72 NW10      29.92S
GARRISON         N/A     38  29  70 NW14      29.90F
HETTINGER ARPT MOSUNNY   35  25  66 NW13      29.94F
JAMESTOWN      PTSUNNY   40  32  73 N16       29.88R
CARRINGTON     CLOUDY    37  32  81 N7        29.91S
HAZEN          FAIR      36  32  87 W10       29.95S
LINTON           N/A     39  30  70 NW9       29.94S
MANDAN         MOCLDY    37  32  81 NW16      29.92S
OAKES            N/A     37  36  93 NW8       29.90R
RUGBY          CLOUDY    36  28  75 SW6       29.88S
STANLEY        FAIR      34  28  80 NW10G18   29.91F
TIOGA          FAIR      30  27  86 W12       29.92S
WATFORD CITY   FAIR      34  25  69 W10       29.95R
$$

CITY           SKY/WX    TMP DP  RH WIND       PRES   REMARKS
GRAND FORKS    CLOUDY    28  24  85 NW7       29.89S
GRAND FORKS AF CLOUDY    30  25  81 NW3       29.88S
DEVILS LAKE    CLOUDY    31  26  82 NW12      29.89R
FARGO          CLOUDY    30  26  85 SW5       29.91R
CANDO          FAIR      32  30  93 NW6       29.91R
CAVALIER       CLOUDY    23  23 100 SW3       29.88S
GRAFTON        CLOUDY    25  23  93 W3        29.91S
GWINNER          N/A     37  34  87 CALM      29.90R
LANGDON        FAIR      28  27  93 W9        29.86R WCI  20
ROLLA          FAIR      30  25  80 NW7       29.86R
WALHALLA       FAIR      25  25 100 NW5       29.87F WCI  19
$$

CITY           SKY/WX    TMP DP  RH WIND       PRES   REMARKS
ABERDEEN       MOSUNNY   42  34  73 N9        29.92R
MOBRIDGE       CLOUDY    42  31  64 N7        29.91S
BUFFALO          N/A     36  25  64 NW16      29.88F
RAPID CITY     CLOUDY    37  28  70 N20       29.94F
SIDNEY         SUNNY     37  22  54 NW13      29.97F
WOLF POINT     CLOUDY    31  25  78 SW6       29.99F
GLENDIVE       CLOUDY    35  22  58 NW9       29.99S
MILES CITY     CLOUDY    36  28  73 W7        30.00S
BAKER          CLOUDY    32  28  85 W9        29.96F
$$

CITY           SKY/WX    TMP DP  RH WIND       PRES   REMARKS
BILLINGS       LGT SNOW  31  30  96 NE8       29.98S VSB 1
GREAT FALLS    CLOUDY    31  26  82 SE7       30.01S
REGINA         MOSUNNY   32  21  64 W17       29.85F
ESTEVAN        MOSUNNY   34  21  60 W13G18    29.89R
$$





USA.gov is the U.S. government's official web portal to all federal, state and local government web resources and services.